Torna al catalogo

FENGYUN 1C DEB

AttivoPO
NORAD 30575·DEBRIS·🇨🇳 China

Lanciato May 10, 1999 da Taiyuan Satellite Launch Center

Loading…

Prossimi Passaggi (prossime 24 ore)

TLE

AggiornatoSource: Space-Track

Epoca: Sep 14, 2026, 14:13 UTC

1 30575U 99025ALR 26257.59299209  .00001836  00000-0  57124-3 0  9992
2 30575  99.1771  13.2880 0054055 145.9976 227.9089 14.41464886 21813

Traccia FENGYUN 1C DEB in tempo reale con AllMySat

Download on the App Store